Location: ????????
(54.8751°N, 38.5756°E)
Time: 04:44:32
(UTC+00:00)

Resurs 1-4 Rocket - Pass Details

Date: 14 April 2024
Orbit: 798 x 814 km, 98.7° (Epoch: 23 May)

Event Time Altitude Azimuth Distance (km) Brightness Sun altitude
Rises 01:34:42 0° 10° (N) 3,349 5.9 -7.4°
Reaches altitude 10° 01:37:41 10° 354° (N) 2,411 4.9 -7.1°
Maximum altitude 01:41:16 19° 311° (NW) 1,862 3.8 -6.6°
Drops below altitude 10° 01:44:51 10° 268° (W) 2,396 4.0 -6.1°
Enters shadow 01:46:01 - 260° (W) 2,733 4.2 -6.0°
